Cook, MN

12:47 AM CDT on August 26, 2016 (GMT -0500)
Cook Municipal

Weather History for KCQM - August, 2014

Change the Weather History Date:

Friday, August 29, 2014

  Actual Average Record
Temperature  
Mean Temperature 60 °F -  
Max Temperature 64 °F 70 °F 89 °F (2012)
Min Temperature 57 °F 49 °F 37 °F (1999)
Degree Days  
Heating Degree Days 4    
Growing Degree Days 10 (Base 50)    
Moisture  
Dew Point 60 °F    
Average Humidity 92    
Maximum Humidity 100    
Minimum Humidity 82    
Precipitation  
Precipitation 0.18 in - - ()
Sea Level Pressure  
Sea Level Pressure 29.83 in    
Wind  
Wind Speed 1 mph (East)    
Max Wind Speed 5 mph    
Max Gust Speed -    
Visibility 9 miles    
Events Rain    
Averages and records for this station are not official NWS values.
T = Trace of Precipitation, MM = Missing Value Source: NWS Daily Summary

Daily Weather History Graph

Daily Weather History Graph

Search for Another Location

Airport or City:

Trip Planner

Search our weather history database for the weather conditions in past years. The results will help you decide how hot, cold, wet, or windy it might be!

Date:

Astronomy

Aug. 29, 2014 Rise Set
Actual Time 6:25 AM CDT 7:57 PM CDT
Civil Twilight 5:52 AM CDT 8:29 PM CDT
Nautical Twilight 5:13 AM CDT 9:08 PM CDT
Astronomical Twilight 4:30 AM CDT 9:51 PM CDT
Moon 10:34 AM CDT (8/29) 9:34 PM CDT (8/29)
Length of Visible Light 14h 36m
Length of Day
13h 32m
Waxing Crescent, 15% of the Moon is Illuminated
Aug 29
Waxing Crescent
Sep 2
First Quarter
Sep 8
Full
Sep 15
Last Quarter
Sep 24
New

Hourly Weather History & Observations

Time (CDT) Temp. Dew Point Humidity Pressure Visibility Wind Dir Wind Speed Gust Speed Precip Events Conditions
12:15 AM 60.8 °F 55.4 °F 82% 29.94 in 10.0 mi SE 3.5 mph - N/A   Overcast
12:34 AM 60.8 °F 55.4 °F 82% 29.94 in 10.0 mi Calm Calm - N/A   Overcast
12:54 AM 60.8 °F 55.4 °F 82% 29.93 in 10.0 mi Calm Calm - N/A   Overcast
1:14 AM 60.8 °F 55.4 °F 82% 29.93 in 10.0 mi Calm Calm - N/A   Overcast
1:34 AM 60.8 °F 57.2 °F 88% 29.92 in 10.0 mi SE 3.5 mph - N/A   Mostly Cloudy
1:55 AM 62.6 °F 57.2 °F 82% 29.90 in 10.0 mi South 3.5 mph - N/A   Scattered Clouds
2:14 AM 62.6 °F 57.2 °F 82% 29.90 in 10.0 mi Calm Calm - N/A   Scattered Clouds
2:35 AM 60.8 °F 57.2 °F 88% 29.89 in 10.0 mi Calm Calm - N/A Rain Light Rain
2:55 AM 60.8 °F 57.2 °F 88% 29.88 in 10.0 mi SSE 3.5 mph - N/A   Light Drizzle
3:14 AM 60.8 °F 57.2 °F 88% 29.87 in 10.0 mi Calm Calm - N/A   Scattered Clouds
3:35 AM 60.8 °F 57.2 °F 88% 29.88 in 10.0 mi Calm Calm - N/A   Mostly Cloudy
3:55 AM 60.8 °F 57.2 °F 88% 29.89 in 10.0 mi Calm Calm - N/A Rain Light Rain
4:14 AM 59.0 °F 57.2 °F 94% 29.89 in 10.0 mi NE 3.5 mph - N/A Rain Light Rain
4:35 AM 59.0 °F 57.2 °F 94% 29.88 in 7.0 mi ENE 3.5 mph - N/A Rain Light Rain
4:54 AM 59.0 °F 57.2 °F 94% 29.88 in 10.0 mi ENE 3.5 mph - N/A   Light Drizzle
5:15 AM 57.2 °F 57.2 °F 100% 29.87 in 10.0 mi Calm Calm - N/A   Overcast
5:34 AM 57.2 °F 57.2 °F 100% 29.87 in 10.0 mi Calm Calm - N/A Rain Light Rain
5:54 AM 57.2 °F 57.2 °F 100% 29.86 in 7.0 mi Calm Calm - N/A Rain Rain
6:15 AM 59.0 °F 57.2 °F 94% 29.86 in 7.0 mi East 3.5 mph - N/A   Drizzle
6:34 AM 59.0 °F 57.2 °F 94% 29.85 in 10.0 mi Calm Calm - N/A   Overcast
6:42 AM 59.0 °F 59.0 °F 100% 29.85 in 10.0 mi Calm Calm - N/A   Overcast
7:15 AM 59.0 °F 57.2 °F 94% 29.85 in 5.0 mi Calm Calm - N/A Rain Light Rain
7:34 AM 60.8 °F 59.0 °F 94% 29.85 in 1.8 mi Calm Calm - 0.03 in Rain Rain
7:54 AM 60.8 °F 59.0 °F 94% 29.85 in 1.2 mi Calm Calm - 0.06 in Rain Heavy Rain
8:15 AM 59.0 °F 59.0 °F 100% 29.85 in 0.8 mi Calm Calm - 0.03 in Rain Heavy Rain
8:34 AM 60.8 °F 59.0 °F 94% 29.85 in 1.0 mi Calm Calm - 0.07 in Rain Heavy Rain
8:55 AM 60.8 °F 59.0 °F 94% 29.84 in 1.0 mi NE 3.5 mph - 0.08 in Rain Heavy Rain
9:14 AM 60.8 °F 59.0 °F 94% 29.83 in 1.8 mi Calm Calm - 0.01 in Rain Heavy Rain
9:35 AM 60.8 °F 60.8 °F 100% 29.83 in 7.0 mi Calm Calm - 0.04 in Rain Light Rain
9:54 AM 60.8 °F 60.8 °F 100% 29.82 in 7.0 mi Calm Calm - 0.04 in   Light Drizzle
10:14 AM 60.8 °F 60.8 °F 100% 29.81 in 7.0 mi Calm Calm - N/A Rain Rain
10:35 AM 62.6 °F 60.8 °F 94% 29.82 in 10.0 mi Calm Calm - N/A   Light Drizzle
10:54 AM 62.6 °F 60.8 °F 94% 29.82 in 10.0 mi Calm Calm - N/A   Overcast
11:15 AM 62.6 °F 60.8 °F 94% 29.83 in 10.0 mi Calm Calm - N/A   Overcast
11:34 AM 62.6 °F 60.8 °F 94% 29.82 in 10.0 mi Calm Calm - N/A Rain Rain
11:54 AM 62.6 °F 60.8 °F 94% 29.81 in 10.0 mi Calm Calm - N/A Rain Light Rain
12:15 PM 62.6 °F 60.8 °F 94% 29.81 in 10.0 mi SE 4.6 mph - N/A   Overcast
12:34 PM 62.6 °F 60.8 °F 94% 29.81 in 10.0 mi Calm Calm - N/A   Overcast
12:54 PM 64.4 °F 60.8 °F 88% 29.81 in 10.0 mi East 3.5 mph - N/A   Overcast
1:15 PM 64.4 °F 60.8 °F 88% 29.79 in 10.0 mi East 3.5 mph - N/A   Overcast
1:34 PM 64.4 °F 62.6 °F 94% 29.79 in 10.0 mi Calm Calm - N/A   Overcast
1:55 PM 64.4 °F 60.8 °F 88% 29.78 in 10.0 mi Calm Calm - N/A   Overcast
2:14 PM 64.4 °F 60.8 °F 88% 29.78 in 10.0 mi Calm Calm - N/A   Overcast
2:34 PM 64.4 °F 60.8 °F 88% 29.79 in 10.0 mi Calm Calm - N/A   Overcast
2:55 PM 64.4 °F 60.8 °F 88% 29.78 in 10.0 mi Calm Calm - N/A   Overcast
3:15 PM 64.4 °F 60.8 °F 88% 29.78 in 10.0 mi Calm Calm - N/A   Overcast
3:35 PM 64.4 °F 60.8 °F 88% 29.78 in 10.0 mi Calm Calm - N/A   Overcast
3:54 PM 64.4 °F 60.8 °F 88% 29.77 in 10.0 mi Calm Calm - N/A   Overcast
4:14 PM 64.4 °F 60.8 °F 88% 29.77 in 10.0 mi Calm Calm - N/A   Overcast
4:34 PM 64.4 °F 60.8 °F 88% 29.77 in 10.0 mi Calm Calm - N/A   Overcast
4:55 PM 64.4 °F 60.8 °F 88% 29.77 in 10.0 mi Calm Calm - N/A   Overcast
5:14 PM 64.4 °F 60.8 °F 88% 29.77 in 10.0 mi Calm Calm - N/A   Overcast
5:34 PM 64.4 °F 60.8 °F 88% 29.77 in 10.0 mi Calm Calm - N/A   Overcast
5:55 PM 64.4 °F 60.8 °F 88% 29.77 in 10.0 mi Calm Calm - N/A   Overcast
6:14 PM 64.4 °F 60.8 °F 88% 29.77 in 10.0 mi Calm Calm - N/A   Overcast
6:35 PM 64.4 °F 60.8 °F 88% 29.77 in 10.0 mi Calm Calm - N/A   Overcast
6:54 PM 64.4 °F 60.8 °F 88% 29.78 in 10.0 mi Calm Calm - N/A   Overcast
7:14 PM 64.4 °F 60.8 °F 88% 29.79 in 10.0 mi Calm Calm - N/A   Overcast
7:35 PM 62.6 °F 60.8 °F 94% 29.79 in 10.0 mi Calm Calm - N/A   Overcast
7:54 PM 62.6 °F 62.6 °F 100% 29.79 in 10.0 mi Calm Calm - N/A   Overcast
8:15 PM 62.6 °F 62.6 °F 100% 29.80 in 10.0 mi Calm Calm - N/A   Overcast
8:34 PM 62.6 °F 60.8 °F 94% 29.81 in 10.0 mi Calm Calm - N/A   Overcast
8:53 PM 62.6 °F 60.8 °F 94% 29.81 in 10.0 mi Calm Calm - N/A   Overcast
9:14 PM 62.6 °F 60.8 °F 94% 29.81 in 10.0 mi Calm Calm - N/A   Overcast
9:34 PM 62.6 °F 60.8 °F 94% 29.81 in 10.0 mi Calm Calm - N/A   Overcast
9:53 PM 62.6 °F 60.8 °F 94% 29.81 in 10.0 mi Calm Calm - N/A   Overcast
10:15 PM 60.8 °F 60.8 °F 100% 29.81 in 2.0 mi Calm Calm - N/A   Mostly Cloudy
10:34 PM 60.8 °F 60.8 °F 100% 29.81 in 7.0 mi Calm Calm - N/A   Mostly Cloudy
10:55 PM 60.8 °F 60.8 °F 100% 29.82 in 5.0 mi Calm Calm - N/A   Scattered Clouds
10:56 PM 60.8 °F 60.8 °F 100% 29.82 in 7.0 mi Calm Calm - N/A   Scattered Clouds
11:35 PM 60.8 °F 60.8 °F 100% 29.82 in 10.0 mi Calm Calm - N/A   Overcast
11:54 PM 60.8 °F 60.8 °F 100% 29.82 in 7.0 mi Calm Calm - N/A   Overcast